Find Starlink 11388

NORAD ID: 62092 Int'l Des: 2024-220 Owner: SPXS Country: US Constellation: starlink operational
LEOCIRCULAR

实时位置

正在加载3D地球...

关于 Starlink 11388

正在加载描述...

即将过境

Passes for default location (London). Set your location on the main map for personalized predictions.

高度历史

Loading altitude history...

两行轨道根数

1 62092U 24220E 26127.19483278 .00141887 00000-0 10866-2 0 9991
2 62092 43.0017 50.5019 0002118 277.7684 82.2944 15.70924185 84158
Epoch: May 7, 2026 • Age: 13 hours

当前状态

高度 355.5 km
速度 7.70 km/s
星下点 6.41°N, 90.71°E
发射日期 Nov 25, 2024
运行时间 1.4 years
类型 internet

技术详情

分类 Payload
质量 960.00 kg
干质量 910.00 kg
总质量 960.00 kg
长度 0.30 m
直径 4.10 m
跨度 29.00 m
形状 Box + pan
制造商 SPXS
平台类型 Starlink V2MD
阶段状态 In Orbit
所有者/国家 SPXS/US

Most Searched